Regional Weather Roundup
Issued by NWS

Home | Current Version | Previous Version | Graphics & Text | Print | Product List | Glossary Off
Versions: 1 2 3 4 5 6 7 8 9 10 11 12 13 14 15 16 17 18 19 20 21 22 23 24 25 26 27 28 29 30 31 32 33 34 35 36 37 38 39 40 41 42 43 44 45 46 47 48 49 50

000
ASUS43 KMKX 300321
RWRWI

WISCONSIN REGIONAL WEATHER ROUNDUP
NATIONAL WEATHER SERVICE MILWAUKEE/SULLIVAN WI
1000 PM CDT WED MAR 29 2017

NOTE: "FAIR" INDICATES FEW OR NO CLOUDS BELOW 12,000 FEET WITH NO
SIGNIFICANT WEATHER AND/OR OBSTRUCTIONS TO VISIBILITY.

WIZ001-002-006>008-014>016-023>028-300400-
NORTHWEST WISCONSIN

CITY           SKY/WX    TMP DP  RH WIND       PRES   REMARKS
SUPERIOR ARPT  CLOUDY    33  32  94 NE12      30.22F WCI  25
ASHLAND        CLOUDY    32  28  85 N5        30.20F WCI  27
HAYWARD        CLOUDY    39  30  70 N6        30.16F WCI  35
SIREN          CLOUDY    40  32  71 NE3       30.15F
CUMBERLAND     CLOUDY    43  32  65 SE7       30.14F
RICE LAKE      CLOUDY    44  34  68 SE9       30.16F
CHETEK         CLOUDY    42  36  79 SE8       30.16F
LADYSMITH      CLOUDY    43  31  63 SE6       30.19F
EAU CLAIRE     LGT RAIN  40  37  89 E12       30.14F WCI  33
MENOMONIE      LGT RAIN  40  38  91 E10       30.14F WCI  34
NEW RICHMOND   CLOUDY    42  35  79 SE7       30.14F
OSCEOLA        CLOUDY    43  37  77 SE7       30.16F
$$

WIZ003>005-009-010-017-018-300400-
NORTH CENTRAL WISCONSIN

CITY           SKY/WX    TMP DP  RH WIND       PRES   REMARKS
MANITOWISH WTR CLOUDY    40  28  62 SE3       30.18F
ARBOR VITAE    CLOUDY    42  29  61 SE3       30.18F
WOODRUFF       CLOUDY    42  29  61 SE3       30.18F
RHINELANDER    MOCLDY    38  28  67 SE6       30.19F WCI  33
EAGLE RIVER    CLOUDY    39  25  58 SE6       30.18F WCI  34
LAND O LAKES   CLOUDY    37  28  67 E3        30.21F
PHILLIPS       CLOUDY    40  30  67 SE5       30.16F
TOMAHAWK       MOCLDY    37  28  70 CALM      30.19F
MEDFORD        CLOUDY    37  32  81 SE7       30.17F WCI  32
MERRILL        CLOUDY    39  29  67 SE6       30.20F WCI  35
$$

WIZ029-030-035-036-043>047-300400-
CENTRAL WISCONSIN

CITY           SKY/WX    TMP DP  RH WIND       PRES   REMARKS
WAUSAU         LGT RAIN  36  30  79 SE15      30.19F WCI  27
MOSINEE        DRIZZLE   36  34  93 E8        30.21F WCI  29
MARSHFIELD     LGT RAIN  36  33  89 E13       30.15F WCI  27
STEVENS POINT  LGT RAIN  33  33 100 NE10      30.19F WCI  25
WAUPACA        LGT SNOW  37  31  80 NE6       30.21F WCI  32
WAUTOMA        LGT RAIN  36  30  79 NE10      30.17F WCI  28
WISC RAPIDS    LGT RAIN  35  35 100 E12       30.20F WCI  27
CAMP DOUGLAS   CLOUDY    39  36  87 NE10      30.14F WCI  32
$$

WIZ011>013-019>022-031-037>040-048>050-300400-
NORTHEAST WISCONSIN

CITY           SKY/WX    TMP DP  RH WIND       PRES   REMARKS
ANTIGO         CLOUDY    35  28  75 SE8       30.20F WCI  29
SHAWANO        FLURRIES  37  31  78 SE9       30.24F WCI  30
OCONTO         CLOUDY    36  27  67 CALM      30.25F
STURGEON BAY   LGT RAIN  37  30  75 NE8       30.26R WCI  31
GREEN BAY      CLOUDY    38  31  76 NE8       30.23F WCI  32
MANITOWOC      CLOUDY    38  31  76 N7        30.22F WCI  33
APPLETON       LGT RAIN  37  27  65 NE10      30.20S WCI  30
CLINTONVILLE   LGT SNOW  32  32 100 NE5       30.22F WCI  27
OSHKOSH        CLOUDY    38  30  73 NE10      30.19S WCI  31
$$

WIZ032>034-041-042-053>061-300400-
SOUTHWEST WISCONSIN

CITY           SKY/WX    TMP DP  RH WIND       PRES   REMARKS
LA CROSSE      CLOUDY    42  37  82 E14G25    30.12F
SPARTA         DRIZZLE   39  36  89 E10       30.15F WCI  32
VIROQUA        CLOUDY    38  35  89 E16G24    30.09F WCI  29
BOSCOBEL       LGT RAIN  41  40  96 E12G22    30.10F
PRAIRIE DU CHI RAIN      39  38  97 E13G20    30.06F WCI  32
PLATTEVILLE    CLOUDY    39  39 100 NE21      30.05F WCI  29
$$

WIZ056-057-062-063-064-067-068-300400-
SOUTH CENTRAL WISCONSIN

CITY           SKY/WX    TMP DP  RH WIND       PRES   REMARKS
REEDSBURG      CLOUDY    40  32  74 E8        30.12F WCI  34
BARABOO/DELLS  CLOUDY    39  30  69 E12       30.13F WCI  32
LONE ROCK      LGT RAIN  40  35  83 E20G26    30.12F WCI  30
MINERAL POINT  LGT RAIN  39  39 100 E18G28    30.06F WCI  30
MADISON        LGT RAIN  38  35  89 E10       30.14S WCI  31
MIDDLETON      CLOUDY    40  37  91 E12       30.13F WCI  33
WATERTOWN      LGT RAIN  38  36  93 E9        30.14F WCI  31
MONROE         CLOUDY    37  36  93 NE21G26   30.06F WCI  27
JANESVILLE     CLOUDY    41  39  93 NE17      30.08S
$$

WIZ051-052-058>065-066-070>072-300400-
SOUTHEAST WISCONSIN

CITY           SKY/WX    TMP DP  RH WIND       PRES   REMARKS
MILWAUKEE      LGT RAIN  38  35  89 NE15      30.13F WCI  29
WAUKESHA       RAIN      36  34  93 NE10G17   30.15F WCI  28
MILWAUKEE/TIMM LGT RAIN  36  32  87 NE8       30.17F WCI  29
RACINE         LGT RAIN  39  36  89 NE15      30.14F WCI  31
KENOSHA        CLOUDY    40  37  89 NE16      30.10F WCI  31
FOND DU LAC    CLOUDY    39  29  67 NE10      30.19R WCI  32
SHEBOYGAN      CLOUDY    38  31  76 NE13      30.20R WCI  30
WEST BEND      DRIZZLE   36  34  93 E6        30.17S WCI  31
JUNEAU         LGT RAIN  38  31  76 NE5       30.16F WCI  34
$$

LSZ147-162-300400-
LAKE SUPERIOR

STATION/POSITION TIME  TEMP    WIND        PRES    WAVE
                       AIR SEA DIR/SP/G            HT/PER
                 (UTC) (F)     (DEG/KT/KT) (MB)    (FT/S)
DEVILS ISLAND    0300   35      60/ 16/ 18 1023.9F
PORT WING        0240   35      40/ 13/ 16 1023.4F
SAXON HARBOR     0240   33      CALM  /  1 1022.7S
$$

LMZ867-665-643>646-300400-
LAKE MICHIGAN

STATION/POSITION TIME  TEMP    WIND        PRES    WAVE
                       AIR SEA DIR/SP/G            HT/PER
                 (UTC) (F)     (DEG/KT/KT) (MB)    (FT/S)
CHAMBERS ISLAND  0240   33      10/  7/  8 1024.0S
NORTHPORT PIER   0240   36      60/  5/  8 1024.4R
SISTER BAY       0221   37     100/  5/ 11   N/A
KEWAUNEE LAKESHO 0254   38      20/ 12/ 16 1022.6F
SHEBOYGAN LAKESH 0300   37     360/ 14/ 15 1022.9R
PORT WASHINGTON  0230   39      20/  3/ 11 1023.0R
MILWAUKEE LAKESH 0300   37      20/ 13/ 14   N/A
KENOSHA   LAKESH 0300   40      40/ 19/ 21 1019.3
$$

TC  - TEMPERATURE IN CELSIUS
VSB - VISIBILITY IN STATUTE MILES
WCI - WIND CHILL INDEX
HX  - HEAT INDEX




USA.gov is the U.S. government's official web portal to all federal, state and local government web resources and services.